date,time,SUV Intensity [MED/Hr],UV Index,Daily total [MED],Since Last [MED]
21/09/2022,00:00:52,0.000,0.0,0.0,0.0
21/09/2022,00:01:52,0.000,0.0,0.0,0.0
21/09/2022,00:02:53,0.000,0.0,0.0,0.0
21/09/2022,00:03:53,0.000,0.0,0.0,0.0
21/09/2022,00:04:53,0.000,0.0,0.0,0.0
21/09/2022,00:05:52,0.000,0.0,0.0,0.0
21/09/2022,00:07:01,0.000,0.0,0.0,0.0
21/09/2022,00:07:52,0.000,0.0,0.0,0.0
21/09/2022,00:08:52,0.000,0.0,0.0,0.0
21/09/2022,00:09:53,0.000,0.0,0.0,0.0
21/09/2022,00:10:52,0.000,0.0,0.0,0.0
21/09/2022,00:11:53,0.000,0.0,0.0,0.0
21/09/2022,00:12:52,0.000,0.0,0.0,0.0
21/09/2022,00:14:01,0.000,0.0,0.0,0.0
21/09/2022,00:14:52,0.000,0.0,0.0,0.0
21/09/2022,00:15:52,0.000,0.0,0.0,0.0
21/09/2022,00:16:53,0.000,0.0,0.0,0.0
21/09/2022,00:17:53,0.000,0.0,0.0,0.0
21/09/2022,00:18:54,0.000,0.0,0.0,0.0
21/09/2022,00:19:52,0.000,0.0,0.0,0.0
21/09/2022,00:20:53,0.000,0.0,0.0,0.0
21/09/2022,00:21:53,0.000,0.0,0.0,0.0
21/09/2022,00:22:52,0.000,0.0,0.0,0.0
21/09/2022,00:23:52,0.000,0.0,0.0,0.0
21/09/2022,00:24:53,0.000,0.0,0.0,0.0
21/09/2022,00:25:53,0.000,0.0,0.0,0.0
21/09/2022,00:26:52,0.000,0.0,0.0,0.0
21/09/2022,00:27:52,0.000,0.0,0.0,0.0
21/09/2022,00:28:53,0.000,0.0,0.0,0.0
21/09/2022,00:29:53,0.000,0.0,0.0,0.0
21/09/2022,00:30:53,0.000,0.0,0.0,0.0
21/09/2022,00:31:52,0.000,0.0,0.0,0.0
21/09/2022,00:32:53,0.000,0.0,0.0,0.0
21/09/2022,00:33:53,0.000,0.0,0.0,0.0
21/09/2022,00:34:53,0.000,0.0,0.0,0.0
21/09/2022,00:35:52,0.000,0.0,0.0,0.0
21/09/2022,00:36:52,0.000,0.0,0.0,0.0
21/09/2022,00:37:53,0.000,0.0,0.0,0.0
21/09/2022,00:38:54,0.000,0.0,0.0,0.0
21/09/2022,00:39:53,0.000,0.0,0.0,0.0
21/09/2022,00:40:53,0.000,0.0,0.0,0.0
21/09/2022,00:42:01,0.000,0.0,0.0,0.0
21/09/2022,00:43:01,0.000,0.0,0.0,0.0
21/09/2022,00:43:54,0.000,0.0,0.0,0.0
21/09/2022,00:44:53,0.000,0.0,0.0,0.0
21/09/2022,00:45:53,0.000,0.0,0.0,0.0
21/09/2022,00:46:53,0.000,0.0,0.0,0.0
21/09/2022,00:47:53,0.000,0.0,0.0,0.0
21/09/2022,00:48:53,0.000,0.0,0.0,0.0
21/09/2022,00:49:53,0.000,0.0,0.0,0.0
21/09/2022,00:50:53,0.000,0.0,0.0,0.0
21/09/2022,00:52:02,0.000,0.0,0.0,0.0
21/09/2022,00:52:53,0.000,0.0,0.0,0.0
21/09/2022,00:53:53,0.000,0.0,0.0,0.0
21/09/2022,00:54:52,0.000,0.0,0.0,0.0
21/09/2022,00:55:53,0.000,0.0,0.0,0.0
21/09/2022,00:56:53,0.000,0.0,0.0,0.0
21/09/2022,00:57:53,0.000,0.0,0.0,0.0
21/09/2022,00:58:53,0.000,0.0,0.0,0.0
21/09/2022,00:59:53,0.000,0.0,0.0,0.0
21/09/2022,01:00:53,0.000,0.0,0.0,0.0
21/09/2022,01:02:01,0.000,0.0,0.0,0.0
21/09/2022,01:02:53,0.000,0.0,0.0,0.0
21/09/2022,01:03:53,0.000,0.0,0.0,0.0
21/09/2022,01:05:01,0.000,0.0,0.0,0.0
21/09/2022,01:05:52,0.000,0.0,0.0,0.0
21/09/2022,01:06:52,0.000,0.0,0.0,0.0
21/09/2022,01:08:01,0.000,0.0,0.0,0.0
21/09/2022,01:08:53,0.000,0.0,0.0,0.0
21/09/2022,01:09:53,0.000,0.0,0.0,0.0
21/09/2022,01:10:53,0.000,0.0,0.0,0.0
21/09/2022,01:11:53,0.000,0.0,0.0,0.0
21/09/2022,01:12:53,0.001,0.0,0.0,0.0
21/09/2022,01:13:53,0.000,0.0,0.0,0.0
21/09/2022,01:15:09,0.000,0.0,0.0,0.0
21/09/2022,01:16:53,0.000,0.0,0.0,0.0
21/09/2022,01:17:53,0.000,0.0,0.0,0.0
21/09/2022,01:18:53,0.001,0.0,0.0,0.0
21/09/2022,01:19:53,0.000,0.0,0.0,0.0
21/09/2022,01:20:53,0.000,0.0,0.0,0.0
21/09/2022,01:21:53,0.000,0.0,0.0,0.0
21/09/2022,01:22:52,0.000,0.0,0.0,0.0
21/09/2022,01:23:53,0.000,0.0,0.0,0.0
21/09/2022,01:24:53,0.000,0.0,0.0,0.0
21/09/2022,01:25:53,0.000,0.0,0.0,0.0
21/09/2022,01:26:53,0.000,0.0,0.0,0.0
21/09/2022,01:27:53,0.000,0.0,0.0,0.0
21/09/2022,01:28:53,0.000,0.0,0.0,0.0
21/09/2022,01:30:02,0.000,0.0,0.0,0.0
21/09/2022,01:30:53,0.000,0.0,0.0,0.0
21/09/2022,01:31:53,0.000,0.0,0.0,0.0
21/09/2022,01:32:53,0.000,0.0,0.0,0.0
21/09/2022,01:33:53,0.000,0.0,0.0,0.0
21/09/2022,01:34:52,0.000,0.0,0.0,0.0
21/09/2022,01:35:53,0.000,0.0,0.0,0.0
21/09/2022,01:36:53,0.000,0.0,0.0,0.0
21/09/2022,01:37:53,0.000,0.0,0.0,0.0
21/09/2022,01:38:52,0.000,0.0,0.0,0.0
21/09/2022,01:39:53,0.000,0.0,0.0,0.0
21/09/2022,01:40:45,0.001,0.0,0.0,0.0
21/09/2022,01:41:54,0.000,0.0,0.0,0.0
21/09/2022,01:43:01,0.000,0.0,0.0,0.0
21/09/2022,01:43:53,0.000,0.0,0.0,0.0
21/09/2022,01:44:53,0.000,0.0,0.0,0.0
21/09/2022,01:45:53,0.000,0.0,0.0,0.0
21/09/2022,01:46:53,0.000,0.0,0.0,0.0
21/09/2022,01:47:52,0.000,0.0,0.0,0.0
21/09/2022,01:48:53,0.000,0.0,0.0,0.0
21/09/2022,01:49:52,0.000,0.0,0.0,0.0
21/09/2022,01:50:53,0.000,0.0,0.0,0.0
21/09/2022,01:51:53,0.000,0.0,0.0,0.0
21/09/2022,01:52:53,0.001,0.0,0.0,0.0
21/09/2022,01:53:53,0.000,0.0,0.0,0.0
21/09/2022,01:54:53,0.000,0.0,0.0,0.0
21/09/2022,01:56:02,0.000,0.0,0.0,0.0
21/09/2022,01:56:53,0.000,0.0,0.0,0.0
21/09/2022,01:57:53,0.000,0.0,0.0,0.0
21/09/2022,01:58:53,0.000,0.0,0.0,0.0
21/09/2022,01:59:53,0.000,0.0,0.0,0.0
21/09/2022,02:00:53,0.000,0.0,0.0,0.0
21/09/2022,02:01:53,0.000,0.0,0.0,0.0
21/09/2022,02:02:53,0.000,0.0,0.0,0.0
21/09/2022,02:03:53,0.000,0.0,0.0,0.0
21/09/2022,02:04:53,0.001,0.0,0.0,0.0
21/09/2022,02:06:01,0.000,0.0,0.0,0.0
21/09/2022,02:06:53,0.000,0.0,0.0,0.0
21/09/2022,02:07:53,0.000,0.0,0.0,0.0
21/09/2022,02:08:53,0.000,0.0,0.0,0.0
21/09/2022,02:09:53,0.000,0.0,0.0,0.0
21/09/2022,02:10:53,0.000,0.0,0.0,0.0
21/09/2022,02:12:01,0.000,0.0,0.0,0.0
21/09/2022,02:12:52,0.000,0.0,0.0,0.0
21/09/2022,02:13:53,0.000,0.0,0.0,0.0
21/09/2022,02:14:53,0.000,0.0,0.0,0.0
21/09/2022,02:15:53,0.001,0.0,0.0,0.0
21/09/2022,02:16:53,0.000,0.0,0.0,0.0
21/09/2022,02:17:53,0.000,0.0,0.0,0.0
21/09/2022,02:18:53,0.000,0.0,0.0,0.0
21/09/2022,02:19:53,0.000,0.0,0.0,0.0
21/09/2022,02:20:54,0.000,0.0,0.0,0.0
21/09/2022,02:21:53,0.000,0.0,0.0,0.0
21/09/2022,02:22:53,0.001,0.0,0.0,0.0
21/09/2022,02:23:53,0.000,0.0,0.0,0.0
21/09/2022,02:24:53,0.001,0.0,0.0,0.0
21/09/2022,02:25:53,0.001,0.0,0.0,0.0
21/09/2022,02:26:53,0.000,0.0,0.0,0.0
21/09/2022,02:27:54,0.000,0.0,0.0,0.0
21/09/2022,02:28:53,0.000,0.0,0.0,0.0
21/09/2022,02:29:53,0.001,0.0,0.0,0.0
21/09/2022,02:30:53,0.001,0.0,0.0,0.0
21/09/2022,02:31:53,0.001,0.0,0.0,0.0
21/09/2022,02:32:52,0.000,0.0,0.0,0.0
21/09/2022,02:33:54,0.001,0.0,0.0,0.0
21/09/2022,02:35:02,0.001,0.0,0.0,0.0
21/09/2022,02:35:52,0.001,0.0,0.0,0.0
21/09/2022,02:37:01,0.001,0.0,0.0,0.0
21/09/2022,02:37:53,0.001,0.0,0.0,0.0
21/09/2022,02:38:53,0.001,0.0,0.0,0.0
21/09/2022,02:40:02,0.001,0.0,0.0,0.0
21/09/2022,02:40:52,0.001,0.0,0.0,0.0
21/09/2022,02:41:53,0.001,0.0,0.0,0.0
21/09/2022,02:42:53,0.001,0.0,0.0,0.0
21/09/2022,02:43:53,0.001,0.0,0.0,0.0
21/09/2022,02:44:53,0.001,0.0,0.0,0.0
21/09/2022,02:45:53,0.001,0.0,0.0,0.0
21/09/2022,02:47:26,0.001,0.0,0.0,0.0
21/09/2022,02:49:02,0.001,0.0,0.0,0.0
21/09/2022,02:50:00,0.001,0.0,0.0,0.0
21/09/2022,02:50:53,0.001,0.0,0.0,0.0
21/09/2022,02:51:53,0.001,0.0,0.0,0.0
21/09/2022,02:52:53,0.000,0.0,0.0,0.0
21/09/2022,02:53:53,0.001,0.0,0.0,0.0
21/09/2022,02:54:53,0.001,0.0,0.0,0.0
21/09/2022,02:55:54,0.001,0.0,0.0,0.0
21/09/2022,02:56:53,0.001,0.0,0.0,0.0
21/09/2022,02:57:53,0.001,0.0,0.0,0.0
21/09/2022,02:58:53,0.001,0.0,0.0,0.0
21/09/2022,02:59:53,0.001,0.0,0.0,0.0
21/09/2022,03:00:53,0.001,0.0,0.0,0.0
21/09/2022,03:01:53,0.001,0.0,0.0,0.0
21/09/2022,03:02:53,0.001,0.0,0.0,0.0
21/09/2022,03:03:53,0.001,0.0,0.0,0.0
21/09/2022,03:04:53,0.001,0.0,0.0,0.0
21/09/2022,03:05:53,0.000,0.0,0.0,0.0
21/09/2022,03:06:53,0.000,0.0,0.0,0.0
21/09/2022,03:07:53,0.001,0.0,0.0,0.0
21/09/2022,03:08:53,0.001,0.0,0.0,0.0
21/09/2022,03:09:53,0.001,0.0,0.0,0.0
21/09/2022,03:10:53,0.002,0.0,0.0,0.0
21/09/2022,03:11:53,0.001,0.0,0.0,0.0
21/09/2022,03:12:53,0.001,0.0,0.0,0.0
21/09/2022,03:13:53,0.001,0.0,0.0,0.0
21/09/2022,03:15:01,0.000,0.0,0.0,0.0
21/09/2022,03:15:53,0.000,0.0,0.0,0.0
21/09/2022,03:16:53,0.002,0.0,0.0,0.0
21/09/2022,03:17:53,0.001,0.0,0.0,0.0
21/09/2022,03:18:53,0.001,0.0,0.0,0.0
21/09/2022,03:19:53,0.001,0.0,0.0,0.0
21/09/2022,03:20:53,0.001,0.0,0.0,0.0
21/09/2022,03:21:53,0.001,0.0,0.0,0.0
21/09/2022,03:22:53,0.001,0.0,0.0,0.0
21/09/2022,03:23:53,0.000,0.0,0.0,0.0
21/09/2022,03:24:53,0.002,0.0,0.0,0.0
21/09/2022,03:25:53,0.001,0.0,0.0,0.0
21/09/2022,03:26:53,0.001,0.0,0.0,0.0
21/09/2022,03:28:01,0.001,0.0,0.0,0.0
21/09/2022,03:28:53,0.001,0.0,0.0,0.0
21/09/2022,03:29:54,0.000,0.0,0.0,0.0
21/09/2022,03:30:53,0.001,0.0,0.0,0.0
21/09/2022,03:31:53,0.001,0.0,0.0,0.0
21/09/2022,03:32:53,0.001,0.0,0.0,0.0
21/09/2022,03:33:53,0.002,0.0,0.0,0.0
21/09/2022,03:34:53,0.000,0.0,0.0,0.0
21/09/2022,03:35:53,0.000,0.0,0.0,0.0
21/09/2022,03:36:53,0.000,0.0,0.0,0.0
21/09/2022,03:38:01,0.001,0.0,0.0,0.0
21/09/2022,03:38:53,0.001,0.0,0.0,0.0
21/09/2022,03:39:53,0.001,0.0,0.0,0.0
21/09/2022,03:41:01,0.001,0.0,0.0,0.0
21/09/2022,03:41:53,0.002,0.0,0.0,0.0
21/09/2022,03:42:53,0.001,0.0,0.0,0.0
21/09/2022,03:44:01,0.001,0.0,0.0,0.0
21/09/2022,03:44:53,0.000,0.0,0.0,0.0
21/09/2022,03:45:53,0.001,0.0,0.0,0.0
21/09/2022,03:46:54,0.000,0.0,0.0,0.0
21/09/2022,03:47:53,0.001,0.0,0.0,0.0
21/09/2022,03:48:53,0.002,0.0,0.0,0.0
21/09/2022,03:49:53,0.001,0.0,0.0,0.0
21/09/2022,03:50:53,0.000,0.0,0.0,0.0
21/09/2022,03:51:53,0.000,0.0,0.0,0.0
21/09/2022,03:52:53,0.001,0.0,0.0,0.0
21/09/2022,03:54:25,0.001,0.0,0.0,0.0
21/09/2022,03:55:53,0.001,0.0,0.0,0.0
21/09/2022,03:56:53,0.001,0.0,0.0,0.0
21/09/2022,03:57:53,0.000,0.0,0.0,0.0
21/09/2022,03:58:53,0.002,0.0,0.0,0.0
21/09/2022,03:59:53,0.001,0.0,0.0,0.0
21/09/2022,04:00:53,0.001,0.0,0.0,0.0
21/09/2022,04:01:53,0.001,0.0,0.0,0.0
21/09/2022,04:02:53,0.001,0.0,0.0,0.0
21/09/2022,04:03:53,0.001,0.0,0.0,0.0
21/09/2022,04:04:53,0.001,0.0,0.0,0.0
21/09/2022,04:05:53,0.000,0.0,0.0,0.0
21/09/2022,04:06:53,0.001,0.0,0.0,0.0
21/09/2022,04:07:53,0.001,0.0,0.0,0.0
21/09/2022,04:08:53,0.001,0.0,0.0,0.0
21/09/2022,04:09:53,0.000,0.0,0.0,0.0
21/09/2022,04:10:53,0.001,0.0,0.0,0.0
21/09/2022,04:11:53,0.000,0.0,0.0,0.0
21/09/2022,04:13:02,0.001,0.0,0.0,0.0
21/09/2022,04:13:53,0.001,0.0,0.0,0.0
21/09/2022,04:14:53,0.001,0.0,0.0,0.0
21/09/2022,04:16:02,0.002,0.0,0.0,0.0
21/09/2022,04:16:53,0.002,0.0,0.0,0.0
21/09/2022,04:17:53,0.001,0.0,0.0,0.0
21/09/2022,04:19:01,0.001,0.0,0.0,0.0
21/09/2022,04:19:53,0.001,0.0,0.0,0.0
21/09/2022,04:20:53,0.001,0.0,0.0,0.0
21/09/2022,04:21:53,0.001,0.0,0.0,0.0
21/09/2022,04:22:53,0.000,0.0,0.0,0.0
21/09/2022,04:23:53,0.001,0.0,0.0,0.0
21/09/2022,04:24:53,0.001,0.0,0.0,0.0
21/09/2022,04:25:53,0.001,0.0,0.0,0.0
21/09/2022,04:26:53,0.001,0.0,0.0,0.0
21/09/2022,04:27:53,0.001,0.0,0.0,0.0
21/09/2022,04:29:01,0.001,0.0,0.0,0.0
21/09/2022,04:29:53,0.002,0.0,0.0,0.0
21/09/2022,04:30:53,0.001,0.0,0.0,0.0
21/09/2022,04:31:53,0.001,0.0,0.0,0.0
21/09/2022,04:32:53,0.001,0.0,0.0,0.0
21/09/2022,04:33:53,0.002,0.0,0.0,0.0
21/09/2022,04:34:53,0.000,0.0,0.0,0.0
21/09/2022,04:35:53,0.000,0.0,0.0,0.0
21/09/2022,04:36:54,0.001,0.0,0.0,0.0
21/09/2022,04:37:53,0.001,0.0,0.0,0.0
21/09/2022,04:39:01,0.001,0.0,0.0,0.0
21/09/2022,04:39:53,0.001,0.0,0.0,0.0
21/09/2022,04:40:53,0.001,0.0,0.0,0.0
21/09/2022,04:41:53,0.001,0.0,0.0,0.0
21/09/2022,04:42:53,0.002,0.0,0.0,0.0
21/09/2022,04:43:53,0.001,0.0,0.0,0.0
21/09/2022,04:44:53,0.001,0.0,0.0,0.0
21/09/2022,04:45:53,0.001,0.0,0.0,0.0
21/09/2022,04:46:53,0.001,0.0,0.0,0.0
21/09/2022,04:47:53,0.001,0.0,0.0,0.0
21/09/2022,04:48:53,0.001,0.0,0.0,0.0
21/09/2022,04:49:53,0.001,0.0,0.0,0.0
21/09/2022,04:50:53,0.002,0.0,0.0,0.0
21/09/2022,04:52:01,0.002,0.0,0.0,0.0
21/09/2022,04:52:53,0.001,0.0,0.0,0.0
21/09/2022,04:53:54,0.001,0.0,0.0,0.0
21/09/2022,04:54:53,0.000,0.0,0.0,0.0
21/09/2022,04:55:53,0.000,0.0,0.0,0.0
21/09/2022,04:56:53,0.000,0.0,0.0,0.0
21/09/2022,04:57:53,0.002,0.0,0.0,0.0
21/09/2022,04:58:53,0.001,0.0,0.0,0.0
21/09/2022,04:59:53,0.002,0.0,0.0,0.0
21/09/2022,05:00:53,0.001,0.0,0.0,0.0
21/09/2022,05:02:01,0.001,0.0,0.0,0.0
21/09/2022,05:02:53,0.001,0.0,0.0,0.0
21/09/2022,05:03:54,0.001,0.0,0.0,0.0
21/09/2022,05:04:53,0.002,0.0,0.0,0.0
21/09/2022,05:05:54,0.001,0.0,0.0,0.0
21/09/2022,05:06:53,0.001,0.0,0.0,0.0
21/09/2022,05:07:53,0.001,0.0,0.0,0.0
21/09/2022,05:08:53,0.001,0.0,0.0,0.0
21/09/2022,05:09:53,0.001,0.0,0.0,0.0
21/09/2022,05:10:53,0.001,0.0,0.0,0.0
21/09/2022,05:11:53,0.001,0.0,0.0,0.0
21/09/2022,05:12:53,0.001,0.0,0.0,0.0
21/09/2022,05:13:53,0.001,0.0,0.0,0.0
21/09/2022,05:14:53,0.001,0.0,0.0,0.0
21/09/2022,05:15:53,0.000,0.0,0.0,0.0
21/09/2022,05:16:54,0.002,0.0,0.0,0.0
21/09/2022,05:17:53,0.001,0.0,0.0,0.0
21/09/2022,05:18:53,0.000,0.0,0.0,0.0
21/09/2022,05:19:53,0.001,0.0,0.0,0.0
21/09/2022,05:20:53,0.000,0.0,0.0,0.0
21/09/2022,05:21:53,0.002,0.0,0.0,0.0
21/09/2022,05:22:44,0.001,0.0,0.0,0.0
21/09/2022,05:23:44,0.002,0.0,0.0,0.0
21/09/2022,05:24:54,0.000,0.0,0.0,0.0
21/09/2022,05:25:53,0.001,0.0,0.0,0.0
21/09/2022,05:27:01,0.001,0.0,0.0,0.0
21/09/2022,05:27:53,0.001,0.0,0.0,0.0
21/09/2022,05:28:53,0.002,0.0,0.0,0.0
21/09/2022,05:29:53,0.002,0.0,0.0,0.0
21/09/2022,05:30:53,0.003,0.0,0.0,0.0
21/09/2022,05:31:55,0.001,0.0,0.0,0.0
21/09/2022,05:32:53,0.001,0.0,0.0,0.0
21/09/2022,05:33:53,0.002,0.0,0.0,0.0
21/09/2022,05:34:53,0.001,0.0,0.0,0.0
21/09/2022,05:35:53,0.003,0.0,0.0,0.0
21/09/2022,05:37:01,0.001,0.0,0.0,0.0
21/09/2022,05:37:55,0.001,0.0,0.0,0.0
21/09/2022,05:38:53,0.002,0.0,0.0,0.0
21/09/2022,05:39:54,0.002,0.0,0.0,0.0
21/09/2022,05:40:53,0.002,0.0,0.0,0.0
21/09/2022,05:41:54,0.002,0.0,0.0,0.0
21/09/2022,05:42:53,0.003,0.0,0.0,0.0
21/09/2022,05:43:54,0.003,0.0,0.0,0.0
21/09/2022,05:44:53,0.003,0.0,0.0,0.0
21/09/2022,05:45:53,0.003,0.0,0.0,0.0
21/09/2022,05:46:53,0.002,0.0,0.0,0.0
21/09/2022,05:47:53,0.003,0.0,0.0,0.0
21/09/2022,05:48:53,0.003,0.0,0.0,0.0
21/09/2022,05:49:53,0.003,0.0,0.0,0.0
21/09/2022,05:50:53,0.003,0.0,0.0,0.0
21/09/2022,05:51:53,0.003,0.0,0.0,0.0
21/09/2022,05:52:53,0.004,0.0,0.0,0.0
21/09/2022,05:53:53,0.004,0.0,0.0,0.0
21/09/2022,05:54:53,0.004,0.0,0.0,0.0
21/09/2022,05:56:10,0.004,0.0,0.0,0.0
21/09/2022,05:57:54,0.005,0.0,0.0,0.0
21/09/2022,05:58:53,0.005,0.0,0.0,0.0
21/09/2022,05:59:53,0.005,0.0,0.0,0.0
21/09/2022,06:00:53,0.006,0.0,0.0,0.0
21/09/2022,06:01:53,0.007,0.0,0.0,0.0
21/09/2022,06:02:54,0.006,0.0,0.0,0.0
21/09/2022,06:03:53,0.005,0.0,0.0,0.0
21/09/2022,06:04:53,0.006,0.0,0.0,0.0
21/09/2022,06:05:54,0.007,0.0,0.0,0.0
21/09/2022,06:06:53,0.007,0.0,0.0,0.0
21/09/2022,06:07:54,0.007,0.0,0.001,0.001
21/09/2022,06:08:53,0.008,0.0,0.001,0.0
21/09/2022,06:09:53,0.007,0.0,0.001,0.0
21/09/2022,06:10:53,0.008,0.0,0.001,0.0
21/09/2022,06:11:53,0.008,0.0,0.001,0.0
21/09/2022,06:12:53,0.009,0.0,0.001,0.0
21/09/2022,06:13:53,0.009,0.0,0.001,0.0
21/09/2022,06:14:53,0.009,0.0,0.001,0.0
21/09/2022,06:15:53,0.009,0.0,0.002,0.001
21/09/2022,06:17:20,0.010,0.0,0.002,0.0
21/09/2022,06:18:54,0.012,0.0,0.002,0.0
21/09/2022,06:19:53,0.013,0.0,0.002,0.0
21/09/2022,06:20:53,0.011,0.0,0.003,0.001
21/09/2022,06:21:53,0.013,0.0,0.003,0.0
21/09/2022,06:23:02,0.013,0.0,0.003,0.0
21/09/2022,06:24:02,0.014,0.0,0.003,0.0
21/09/2022,06:24:56,0.014,0.0,0.003,0.0
21/09/2022,06:26:01,0.015,0.0,0.004,0.001
21/09/2022,06:26:54,0.015,0.0,0.004,0.0
21/09/2022,06:27:53,0.015,0.0,0.004,0.0
21/09/2022,06:28:53,0.016,0.0,0.004,0.0
21/09/2022,06:29:53,0.017,0.0,0.005,0.001
21/09/2022,06:30:53,0.018,0.0,0.005,0.0
21/09/2022,06:31:53,0.019,0.0,0.005,0.0
21/09/2022,06:32:55,0.020,0.0,0.006,0.001
21/09/2022,06:33:54,0.019,0.0,0.006,0.0
21/09/2022,06:34:53,0.020,0.0,0.006,0.0
21/09/2022,06:36:01,0.021,0.0,0.007,0.001
21/09/2022,06:37:01,0.021,0.0,0.007,0.0
21/09/2022,06:37:55,0.023,0.0,0.007,0.0
21/09/2022,06:38:53,0.022,0.0,0.008,0.001
21/09/2022,06:39:54,0.024,0.0,0.008,0.0
21/09/2022,06:40:53,0.025,0.0,0.009,0.001
21/09/2022,06:41:53,0.025,0.0,0.009,0.0
21/09/2022,06:42:53,0.027,0.0,0.009,0.0
21/09/2022,06:43:53,0.027,0.0,0.01,0.001
21/09/2022,06:44:54,0.028,0.0,0.01,0.0
21/09/2022,06:46:01,0.029,0.0,0.011,0.001
21/09/2022,06:46:53,0.030,0.0,0.011,0.0
21/09/2022,06:47:54,0.031,0.0,0.012,0.001
21/09/2022,06:48:53,0.031,0.0,0.012,0.0
21/09/2022,06:49:54,0.032,0.0,0.013,0.001
21/09/2022,06:50:53,0.033,0.0,0.013,0.0
21/09/2022,06:51:54,0.035,0.0,0.014,0.001
21/09/2022,06:52:53,0.036,0.0,0.015,0.001
21/09/2022,06:54:01,0.036,0.0,0.015,0.0
21/09/2022,06:54:53,0.037,0.0,0.016,0.001
21/09/2022,06:56:02,0.038,0.0,0.016,0.0
21/09/2022,06:57:02,0.038,0.0,0.017,0.001
21/09/2022,06:57:54,0.040,0.0,0.018,0.001
21/09/2022,06:58:53,0.041,0.0,0.018,0.0
21/09/2022,06:59:54,0.042,0.0,0.019,0.001
21/09/2022,07:00:53,0.043,0.0,0.02,0.001
21/09/2022,07:01:53,0.043,0.0,0.02,0.0
21/09/2022,07:02:54,0.045,0.0,0.021,0.001
21/09/2022,07:03:53,0.046,0.0,0.022,0.001
21/09/2022,07:04:54,0.047,0.0,0.023,0.001
21/09/2022,07:05:53,0.048,0.0,0.024,0.001
21/09/2022,07:07:02,0.050,0.0,0.024,0.0
21/09/2022,07:07:54,0.051,0.0,0.025,0.001
21/09/2022,07:08:54,0.052,0.0,0.026,0.001
21/09/2022,07:09:53,0.052,0.0,0.027,0.001
21/09/2022,07:10:53,0.053,0.0,0.028,0.001
21/09/2022,07:11:53,0.054,0.0,0.029,0.001
21/09/2022,07:12:53,0.054,0.0,0.03,0.001
21/09/2022,07:13:53,0.056,0.0,0.031,0.001
21/09/2022,07:14:53,0.057,0.0,0.031,0.0
21/09/2022,07:15:54,0.057,0.0,0.032,0.001
21/09/2022,07:17:02,0.060,0.0,0.034,0.002
21/09/2022,07:17:53,0.059,0.0,0.034,0.0
21/09/2022,07:18:54,0.062,0.0,0.035,0.001
21/09/2022,07:19:53,0.064,0.0,0.036,0.001
21/09/2022,07:20:53,0.065,0.0,0.038,0.002
21/09/2022,07:21:54,0.067,0.0,0.039,0.001
21/09/2022,07:22:53,0.068,0.0,0.04,0.001
21/09/2022,07:23:53,0.069,0.0,0.041,0.001
21/09/2022,07:24:53,0.069,0.0,0.042,0.001
21/09/2022,07:25:53,0.072,0.0,0.043,0.001
21/09/2022,07:27:01,0.074,0.0,0.045,0.002
21/09/2022,07:27:53,0.076,0.0,0.046,0.001
21/09/2022,07:28:54,0.079,0.0,0.047,0.001
21/09/2022,07:30:02,0.082,0.0,0.049,0.002
21/09/2022,07:30:53,0.084,0.0,0.05,0.001
21/09/2022,07:31:54,0.088,0.0,0.051,0.001
21/09/2022,07:32:53,0.090,0.0,0.053,0.002
21/09/2022,07:33:53,0.093,0.0,0.054,0.001
21/09/2022,07:34:53,0.096,0.0,0.056,0.002
21/09/2022,07:35:54,0.099,0.0,0.057,0.001
21/09/2022,07:36:53,0.102,0.0,0.059,0.002
21/09/2022,07:37:54,0.104,0.0,0.061,0.002
21/09/2022,07:38:53,0.106,0.0,0.062,0.001
21/09/2022,07:40:02,0.110,0.0,0.065,0.003
21/09/2022,07:40:53,0.112,0.0,0.066,0.001
21/09/2022,07:41:54,0.114,0.0,0.068,0.002
21/09/2022,07:42:53,0.118,0.0,0.07,0.002
21/09/2022,07:43:53,0.120,0.0,0.072,0.002
21/09/2022,07:44:55,0.122,0.0,0.074,0.002
21/09/2022,07:45:53,0.126,0.0,0.076,0.002
21/09/2022,07:46:53,0.129,0.0,0.078,0.002
21/09/2022,07:47:54,0.131,0.0,0.08,0.002
21/09/2022,07:48:54,0.135,0.0,0.083,0.003
21/09/2022,07:49:54,0.138,0.0,0.085,0.002
21/09/2022,07:50:53,0.141,0.0,0.087,0.002
21/09/2022,07:51:53,0.144,0.0,0.09,0.003
21/09/2022,07:52:53,0.149,0.0,0.092,0.002
21/09/2022,07:53:53,0.152,0.0,0.095,0.003
21/09/2022,07:54:54,0.156,0.0,0.097,0.002
21/09/2022,07:55:53,0.159,0.0,0.1,0.003
21/09/2022,07:56:54,0.162,0.0,0.102,0.002
21/09/2022,07:57:53,0.165,0.0,0.105,0.003
21/09/2022,07:59:02,0.168,0.0,0.108,0.003
21/09/2022,07:59:53,0.170,0.0,0.111,0.003
21/09/2022,08:00:54,0.170,0.0,0.114,0.003
21/09/2022,08:01:53,0.171,0.0,0.116,0.002
21/09/2022,08:02:53,0.174,0.0,0.119,0.003
21/09/2022,08:03:53,0.176,0.0,0.122,0.003
21/09/2022,08:05:02,0.178,0.0,0.126,0.004
21/09/2022,08:05:53,0.181,0.0,0.128,0.002
21/09/2022,08:06:53,0.186,0.0,0.131,0.003
21/09/2022,08:08:02,0.192,0.0,0.135,0.004
21/09/2022,08:08:54,0.196,0.0,0.138,0.003
21/09/2022,08:09:54,0.204,0.0,0.141,0.003
21/09/2022,08:10:53,0.211,0.0,0.144,0.003
21/09/2022,08:11:54,0.219,1.0,0.148,0.004
21/09/2022,08:12:53,0.227,1.0,0.152,0.004
21/09/2022,08:13:53,0.236,1.0,0.156,0.004
21/09/2022,08:14:53,0.255,1.0,0.16,0.004
21/09/2022,08:15:54,0.265,1.0,0.164,0.004
21/09/2022,08:16:53,0.259,1.0,0.168,0.004
21/09/2022,08:17:53,0.273,1.0,0.173,0.005
21/09/2022,08:18:54,0.276,1.0,0.178,0.005
21/09/2022,08:19:53,0.286,1.0,0.182,0.004
21/09/2022,08:20:54,0.281,1.0,0.187,0.005
21/09/2022,08:21:53,0.292,1.0,0.192,0.005
21/09/2022,08:22:54,0.284,1.0,0.197,0.005
21/09/2022,08:23:53,0.275,1.0,0.201,0.004
21/09/2022,08:24:54,0.269,1.0,0.206,0.005
21/09/2022,08:25:53,0.266,1.0,0.21,0.004
21/09/2022,08:26:53,0.263,1.0,0.215,0.005
21/09/2022,08:27:54,0.261,1.0,0.219,0.004
21/09/2022,08:28:54,0.257,1.0,0.223,0.004
21/09/2022,08:29:54,0.255,1.0,0.228,0.005
21/09/2022,08:30:54,0.253,1.0,0.232,0.004
21/09/2022,08:31:53,0.251,1.0,0.236,0.004
21/09/2022,08:32:53,0.250,1.0,0.24,0.004
21/09/2022,08:33:53,0.250,1.0,0.244,0.004
21/09/2022,08:34:54,0.249,1.0,0.248,0.004
21/09/2022,08:35:53,0.249,1.0,0.252,0.004
21/09/2022,08:36:53,0.251,1.0,0.257,0.005
21/09/2022,08:37:54,0.254,1.0,0.261,0.004
21/09/2022,08:38:54,0.258,1.0,0.265,0.004
21/09/2022,08:39:54,0.263,1.0,0.27,0.005
21/09/2022,08:40:55,0.267,1.0,0.274,0.004
21/09/2022,08:41:53,0.270,1.0,0.278,0.004
21/09/2022,08:42:54,0.274,1.0,0.283,0.005
21/09/2022,08:43:54,0.275,1.0,0.288,0.005
21/09/2022,08:45:02,0.281,1.0,0.293,0.005
21/09/2022,08:45:53,0.283,1.0,0.297,0.004
21/09/2022,08:46:54,0.287,1.0,0.302,0.005
21/09/2022,08:47:54,0.289,1.0,0.306,0.004
21/09/2022,08:48:54,0.293,1.0,0.311,0.005
21/09/2022,08:49:54,0.295,1.0,0.316,0.005
21/09/2022,08:50:53,0.296,1.0,0.321,0.005
21/09/2022,08:51:53,0.298,1.0,0.326,0.005
21/09/2022,08:52:53,0.301,1.0,0.331,0.005
21/09/2022,08:53:53,0.302,1.0,0.336,0.005
21/09/2022,08:55:02,0.306,1.0,0.342,0.006
21/09/2022,08:55:54,0.309,1.0,0.346,0.004
21/09/2022,08:56:54,0.312,1.0,0.351,0.005
21/09/2022,08:57:54,0.317,1.0,0.357,0.006
21/09/2022,08:58:54,0.321,1.0,0.362,0.005
21/09/2022,08:59:54,0.325,1.0,0.367,0.005
21/09/2022,09:00:53,0.326,1.0,0.373,0.006
21/09/2022,09:01:54,0.329,1.0,0.378,0.005
21/09/2022,09:02:53,0.331,1.0,0.384,0.006
21/09/2022,09:03:54,0.334,1.0,0.389,0.005
21/09/2022,09:05:03,0.339,1.0,0.396,0.007
21/09/2022,09:05:53,0.344,1.0,0.4,0.004
21/09/2022,09:06:54,0.349,1.0,0.406,0.006
21/09/2022,09:08:02,0.356,1.0,0.413,0.007
21/09/2022,09:08:53,0.360,1.0,0.418,0.005
21/09/2022,09:09:54,0.366,1.0,0.424,0.006
21/09/2022,09:10:53,0.370,1.0,0.43,0.006
21/09/2022,09:11:54,0.376,1.0,0.437,0.007
21/09/2022,09:12:53,0.380,1.0,0.443,0.006
21/09/2022,09:13:54,0.383,1.0,0.449,0.006
21/09/2022,09:14:53,0.385,1.0,0.456,0.007
21/09/2022,09:15:54,0.384,1.0,0.462,0.006
21/09/2022,09:16:53,0.383,1.0,0.468,0.006
21/09/2022,09:17:53,0.383,1.0,0.475,0.007
21/09/2022,09:18:54,0.386,1.0,0.481,0.006
21/09/2022,09:19:53,0.390,1.0,0.488,0.007
21/09/2022,09:21:02,0.397,1.0,0.495,0.007
21/09/2022,09:21:54,0.403,1.0,0.501,0.006
21/09/2022,09:22:53,0.409,1.0,0.508,0.007
21/09/2022,09:23:54,0.413,1.0,0.515,0.007
21/09/2022,09:24:53,0.417,1.0,0.521,0.006
21/09/2022,09:25:54,0.420,1.0,0.528,0.007
21/09/2022,09:26:53,0.423,1.0,0.535,0.007
21/09/2022,09:27:54,0.426,1.0,0.543,0.008
21/09/2022,09:28:54,0.429,1.0,0.55,0.007
21/09/2022,09:29:54,0.433,1.0,0.557,0.007
21/09/2022,09:30:54,0.436,1.0,0.564,0.007
21/09/2022,09:31:53,0.439,1.0,0.571,0.007
21/09/2022,09:32:53,0.442,1.0,0.579,0.008
21/09/2022,09:34:02,0.444,1.0,0.587,0.008
21/09/2022,09:34:53,0.447,1.0,0.593,0.006
21/09/2022,09:35:53,0.450,1.0,0.601,0.008
21/09/2022,09:36:54,0.454,1.0,0.608,0.007
21/09/2022,09:37:54,0.461,1.0,0.616,0.008
21/09/2022,09:38:54,0.467,1.0,0.624,0.008
21/09/2022,09:39:54,0.470,1.0,0.632,0.008
21/09/2022,09:40:54,0.473,1.0,0.64,0.008
21/09/2022,09:41:55,0.473,1.0,0.648,0.008
21/09/2022,09:42:54,0.475,1.0,0.655,0.007
21/09/2022,09:43:53,0.476,1.0,0.663,0.008
21/09/2022,09:44:54,0.480,1.0,0.671,0.008
21/09/2022,09:45:53,0.482,1.0,0.679,0.008
21/09/2022,09:47:02,0.489,1.0,0.688,0.009
21/09/2022,09:47:53,0.493,1.0,0.695,0.007
21/09/2022,09:48:54,0.498,1.0,0.704,0.009
21/09/2022,09:50:02,0.503,1.0,0.713,0.009
21/09/2022,09:50:54,0.507,1.0,0.72,0.007
21/09/2022,09:51:54,0.508,1.0,0.729,0.009
21/09/2022,09:52:53,0.510,1.0,0.737,0.008
21/09/2022,09:53:54,0.513,1.0,0.746,0.009
21/09/2022,09:54:53,0.516,1.0,0.755,0.009
21/09/2022,09:56:02,0.520,1.0,0.764,0.009
21/09/2022,09:56:54,0.520,1.0,0.772,0.008
21/09/2022,09:57:53,0.524,1.0,0.781,0.009
21/09/2022,09:58:54,0.528,1.0,0.789,0.008
21/09/2022,10:00:02,0.538,1.0,0.799,0.01
21/09/2022,10:00:54,0.546,1.0,0.807,0.008
21/09/2022,10:01:54,0.557,1.0,0.816,0.009
21/09/2022,10:02:54,0.564,1.0,0.826,0.01
21/09/2022,10:03:53,0.568,1.0,0.835,0.009
21/09/2022,10:04:54,0.570,1.0,0.845,0.01
21/09/2022,10:05:54,0.574,1.0,0.854,0.009
21/09/2022,10:06:54,0.573,1.0,0.864,0.01
21/09/2022,10:07:54,0.576,1.0,0.873,0.009
21/09/2022,10:08:54,0.581,1.0,0.883,0.01
21/09/2022,10:10:02,0.585,1.0,0.894,0.011
21/09/2022,10:10:54,0.588,1.0,0.903,0.009